Torna al catalogo

COSMOS 2251 DEB

AttivoLEO
NORAD 34412·DEBRIS·🇷🇺 Russia

Lanciato Jun 16, 1993 da Plesetsk Cosmodrome

Loading…

Prossimi Passaggi (prossime 24 ore)

TLE

AggiornatoSource: Space-Track

Epoca: Sep 14, 2026, 09:58 UTC

1 34412U 93036RD  26257.41536441  .00001346  00000-0  29033-3 0  9999
2 34412  73.9467 165.0183 0185780 198.9351 160.4841 14.49271028916425

Traccia COSMOS 2251 DEB in tempo reale con AllMySat

Download on the App Store